Location: Arpaise
(41.0333°N, 14.7333°E)
Time: 00:49:54
(UTC+00:00)

IGS 5A - Pass Details

Date: 05 July 2020
Orbit: 582 x 589 km, 97.6° (Epoch: 08 August)

Event Time Altitude Azimuth Distance (km) Brightness Sun altitude
Exits shadow 20:35:37 21° 196° (SSW) 1,343 4.9 -17.4°
Maximum altitude 20:38:06 46° 261° (W) 790 4.2 -17.7°
Drops below altitude 10° 20:42:08 10° 335° (NNW) 1,919 7.3 -18.1°
Sets 20:44:22 0° 342° (NNW) 2,823 8.4 -18.3°
